Back to catalog

FENGYUN 1C DEB

AliveSSO
NORAD 41826·DEBRIS·🇨🇳 China

Launched May 10, 1999 from Taiyuan Satellite Launch Center

Loading…

Next Passes (next 24 hours)

TLE

FreshSource: Space-Track

Epoch: Sep 12, 2026, 15:41 UTC

1 41826U 99025EYD 26255.65348928  .00001746  00000-0  74946-3 0  9992
2 41826  98.7152 324.5795 0055582 149.5171 210.9259 14.25194035512609

Track FENGYUN 1C DEB in real time with AllMySat

Download on the App Store